Reflectivity
-20 -20 -20 -20 -20 -20 -20 -20 -20 -20 -20 -20 -20 -20 -20 -20 -20 -20 -20 -20 -20 -20 -20 -20 -20 -20 -20 -20 -20 -20 -20 -20 -20 -20 -20 -20 -20 -20 -20 -20 -20 -20 -20 -20
-20 -20 -20 -20 -20 -20 -20 -20 -20 -20 -20 -20 -20 -20 -20 -20 -20 -20 -20 -20 -20 -20 -20 -20 -20 -20 -20 -20 -1 -20 -20 -20 -20 -20 3 14 -20 -20 -20 -20 -20 -20 -20 -20
-20 -20 -20 -20 -20 -20 -20 -20 -20 -20 -20 -20 -20 -20 -20 -20 -20 -20 -20 -20 -20 -20 -20 -20 -7 -19 -20 -20 -20 -20 -20 -20 3 8 -16 1 -17 -20 -20 -20 -20 -20 -20 -20
-20 -20 -20 -20 -20 -20 -20 -20 -20 -20 -20 -20 -20 7 -20 -20 -20 -14 -20 -20 -20 -20 -20 -20 -20 -13 -20 -20 -20 -20 -20 -13 -20 -20 -19 -12 -20 -20 -20 -20 -20 -20 -20 -20
-20 -20 -20 -20 -20 -20 -20 -20 -20 -20 -20 -19 -20 -19 -20 -7 -15 -2 22 -9 -20 -20 -20 -20 -20 -20 -20 -20 -20 -20 -20 -20 -20 -20 6 12 -17 27 -5 -20 -0 -19 -16 -20
-20 -20 -20 -20 -20 -20 -20 -20 -20 -20 -20 -20 -20 -20 -20 24 33 17 21 22 18 -6 -20 -20 -20 -20 -20 -20 -20 -20 -20 -20 -20 -20 9 8 -13 -20 4 -10 -20 -20 -20 -20
-20 -20 -20 -20 -20 -20 -20 -20 -20 -20 -11 6 -19 -20 -14 17 14 28 37 15 13 14 -20 -20 -20 -20 -20 -20 -20 -11 -20 -20 -20 -20 -3 11 7 -17 5 -16 -20 13 10 -8
-0 -20 -20 -20 -20 -20 -20 -20 -14 5 16 5 10 7 18 29 27 28 20 31 14 8 7 -10 -20 -20 -20 -20 -20 -20 -20 -20 -20 -14 20 15 17 6 13 -10 -20 -20 -19 -20
2 -20 -20 -20 -20 -20 -20 -20 -2 16 5 12 26 21 31 18 25 25 36 26 -3 21 15 6 -10 -2 -16 -20 -20 -20 -20 -20 -15 -20 -16 7 -5 11 9 12 4 -5 23 -11
-8 15 -20 -20 -20 -20 -20 -20 -8 -4 21 -7 -3 10 16 16 19 24 22 21 28 21 16 4 13 14 -9 -9 -11 3 -20 -20 -20 -20 -20 -20 -20 -20 -20 -18 -2 -16 -18 -9
-20 9 -19 -20 -20 -20 -20 -20 -16 0 -9 -1 -0 -2 24 20 24 26 26 29 33 37 17 -1 -17 -20 -20 13 -11 13 4 -20 -20 -20 -20 -20 -20 -19 -10 -20 2 -9 -20 -4
-13 17 -20 -20 -20 -20 -20 -20 4 15 -20 -2 14 1 33 23 29 33 27 27 35 40 28 26 18 18 29 17 8 -20 -20 -20 -20 -20 -20 -10 -1 -20 -20 -20 -17 3 -20 -18
10 1 0 -20 -20 -20 -20 -19 2 6 22 3 14 6 26 24 33 35 23 27 31 30 26 34 32 30 26 28 6 -20 -20 -20 -20 -20 -18 -20 -19 8 -6 -20 -7 -1 20 11
-3 21 22 -2 13 15 -5 17 17 22 9 11 11 -0 -3 14 19 23 22 24 24 28 19 11 23 22 16 -1 -3 6 -1 -20 -20 -20 -19 -3 -20 14 5 -5 4 11 13 19
20 6 17 11 8 14 -7 27 19 -16 1 9 10 4 12 12 16 20 15 13 15 10 17 11 -17 -15 -1 13 8 -20 -14 -20 -20 -20 -20 -20 -0 6 -10 12 21 -11 9 19
13 4 12 10 14 22 13 21 18 -1 11 13 16 6 13 14 20 16 11 -5 -2 16 -12 -20 -17 -17 -19 -20 -20 -20 -20 -20 -20 -20 -20 -20 -20 -20 -14 13 6 -1 -15 -19
12 15 12 -18 4 -11 7 18 24 7 -5 8 -12 -2 9 -10 -20 -11 -1 -13 -18 -20 3 -16 -14 -15 -13 -12 -20 -20 -20 -20 -20 -20 -20 -20 -20 -20 -20 -5 -20 -20 -20 -16
-19 26 13 9 1 15 -20 -7 -9 -19 -20 -9 -11 -16 -18 -18 -4 -2 0 -12 -12 -8 -9 -0 -19 -20 -19 -20 -20 -20 -20 -20 -20 -20 -20 -20 -20 -20 -17 -18 -18 -10 -17 9
-20 31 17 21 11 8 -7 -17 -6 1 -15 -10 6 4 -20 -20 -18 -18 5 -20 -20 -20 -20 -17 -15 -17 -20 -20 -15 -20 -20 -20 -20 -20 -20 -20 -20 -20 -20 -20 -14 -13 -18 -0
-20 13 18 5 -13 -20 -1 1 -20 -20 -6 -20 -20 -20 -7 6 -20 -20 -20 -20 -20 -20 -20 -20 -20 -20 -20 -20 -20 -20 -20 -20 -20 -20 -20 -20 -20 -20 -20 -20 -20 -20 -20 -6
-20 3 17 17 -20 -20 -20 -14 -19 -11 -13 -14 -20 -20 -20 -20 -18 -15 -20 -20 -20 -20 -20 -20 -20 -20 -20 -20 -20 -14 -20 -20 -20 -20 -20 -20 -20 -20 -20 -20 -20 -20 -20 -20
-20 6 9 14 2 -20 -1 -17 -20 1 -11 -20 -20 -20 -20 -20 -20 -20 -20 -20 -20 -20 -20 -20 -20 -20 -20 -20 -20 -20 -20 -20 -20 -20 -20 -20 -20 -20 -20 -20 -20 -20 -20 -20
-14 -11 11 3 -20 3 8 -1 -7 -20 -12 -10 -20 -20 -20 -20 -20 -20 -20 -20 -20 -20 -20 -20 -20 -20 -20 -20 -20 -20 -20 -20 -20 -20 -20 -20 -20 -20 -20 -20 -20 -20 -20 -20
9 -0 2 -11 6 1 -17 -20 -20 -20 -20 -19 -18 -20 -20 -20 -20 -20 -20 -20 -20 -20 -20 -20 -20 -20 -20 -20 -20 -20 -20 -20 -20 -20 -20 -20 -20 -20 -20 -20 -20 -20 -20 -20
-18 3 7 1 -14 -20 -20 -20 -20 -20 -20 -20 -20 -20 -20 -20 -20 -20 -20 -20 -20 -20 -20 -20 -20 -20 -20 -20 -20 -20 -20 -20 -20 -20 -20 -20 -20 -20 -20 -20 -0 -20 -10 -0
-10 -14 -19 -8 -6 -20 -20 -20 -20 -20 -20 -20 -20 -20 -20 -20 -20 -20 -20 -20 -20 -20 -20 -20 -20 -20 -20 -20 -20 -20 -20 -20 -20 -20 -20 -20 -20 -20 -20 -20 -20 -15 -16 -6
Wind_Speed
3 1 10 11 10 15 13 11 15 20 22 21 25 20 18 15 21 19 19 19 21 17 16 7 8 6 3 5 8 14 15 14 12 10 10 10 13 11 9 8 10 10 9 10
2 10 14 11 10 10 11 15 19 20 19 15 20 24 20 20 24 21 23 23 21 11 4 9 10 9 11 7 3 4 11 11 12 11 11 6 9 8 7 7 8 9 10 11
6 10 6 12 13 12 15 12 19 22 22 18 17 22 18 23 18 20 22 21 1 3 7 8 11 11 10 11 9 7 8 13 13 12 8 3 5 4 3 8 9 10 11 10
7 5 5 6 9 9 12 14 17 19 13 10 2 15 20 16 21 11 11 13 10 11 12 11 11 13 13 12 11 10 10 4 7 11 10 13 9 8 9 7 7 9 10 12
9 4 5 6 8 6 13 11 13 18 16 13 16 8 7 11 9 10 9 13 13 13 13 12 12 11 11 12 12 10 9 10 10 8 8 10 9 7 4 4 10 10 10 11
12 6 5 6 4 7 9 8 14 11 2 6 16 8 4 8 8 8 10 13 14 13 13 13 12 11 12 12 14 12 11 10 11 8 7 4 14 9 7 9 10 10 8 10
12 4 4 3 5 2 4 3 5 4 1 6 5 5 8 14 12 12 10 13 14 13 13 13 14 14 14 14 14 12 13 12 11 10 9 7 6 8 12 11 10 12 10 9
7 10 4 5 7 4 6 6 4 6 4 6 3 4 6 10 13 14 14 13 15 15 13 13 13 12 13 14 14 13 13 13 13 11 10 8 6 4 5 9 8 9 9 11
7 8 5 10 10 6 1 3 5 5 8 8 6 3 6 14 17 15 15 13 14 14 12 13 13 13 13 14 14 14 13 13 12 11 9 9 8 8 8 7 7 6 7 7
6 12 6 6 2 5 5 1 2 2 5 5 4 5 6 13 14 14 14 16 15 12 9 12 12 14 15 15 13 13 13 13 12 12 9 9 9 8 7 8 9 10 6 7
9 7 9 7 4 4 2 3 3 4 2 2 4 4 8 11 11 12 13 11 11 9 8 11 13 13 14 15 15 14 16 16 16 15 13 12 11 12 8 8 8 9 7 9
2 6 7 13 18 5 3 5 4 3 2 2 3 3 5 11 9 8 10 11 9 9 8 14 16 16 16 17 14 15 16 17 17 14 13 13 13 13 12 10 13 6 9 9
5 4 7 8 1 2 4 4 8 7 4 4 3 4 6 9 8 9 12 12 11 13 15 16 15 18 15 14 17 17 18 17 16 15 15 14 14 14 13 13 12 13 6 8
7 3 5 5 5 8 7 10 2 1 4 5 8 9 10 11 11 11 14 13 16 17 23 27 24 18 16 18 14 19 17 16 15 15 16 16 15 14 12 12 13 13 13 10
3 3 3 7 9 11 21 17 14 15 9 6 7 10 10 10 11 12 12 15 17 19 21 19 17 17 18 18 16 15 16 16 15 15 16 15 14 14 14 14 13 13 14 14
1 3 4 3 3 5 17 21 18 13 13 11 11 9 7 8 8 13 15 16 18 18 17 18 16 16 16 16 14 14 16 16 15 15 16 15 16 16 17 16 16 13 14 15
4 3 3 1 7 9 4 11 14 11 19 6 5 5 5 10 15 15 13 16 17 17 15 14 14 14 14 15 15 15 14 14 15 15 15 16 16 16 16 15 15 16 14 13
4 4 3 2 1 5 2 7 6 17 15 11 11 8 9 11 11 12 13 14 15 15 14 13 11 13 15 14 15 13 13 14 14 14 15 16 15 16 16 15 15 15 13 13
11 4 4 1 3 4 2 8 6 6 8 12 6 2 5 7 5 14 12 12 11 10 9 9 10 11 11 12 11 10 12 13 14 15 14 14 15 14 15 16 16 13 13 14
5 2 4 1 2 2 4 11 7 6 5 10 9 8 8 0 4 4 9 8 9 10 9 9 10 10 13 13 12 11 13 13 14 14 13 12 13 13 13 12 13 12 12 12
3 3 5 4 3 4 8 10 5 2 2 8 8 8 11 7 5 5 6 9 9 10 11 10 10 11 12 13 11 13 12 14 11 11 12 12 12 12 12 10 11 10 11 11
3 4 3 2 3 1 12 3 3 5 5 6 7 8 10 9 7 6 6 7 9 9 10 11 9 9 11 12 11 12 14 12 10 9 10 11 12 11 10 12 11 12 11 11
3 3 3 5 3 4 6 11 9 5 5 3 5 7 8 6 5 5 5 7 8 8 8 9 10 10 11 12 12 13 13 12 12 11 11 11 11 11 12 14 13 10 11 10
2 3 3 1 3 5 6 7 7 6 5 5 6 7 7 7 5 5 6 6 7 9 9 8 9 10 11 11 12 12 12 12 9 12 11 10 10 11 14 11 10 10 11 10
2 2 4 4 5 6 6 5 6 8 9 10 10 8 7 7 6 6 7 7 6 6 7 7 8 9 11 11 11 11 12 12 10 11 11 9 8 8 8 8 9 9 10 12
3 2 0 1 5 3 4 3 5 6 6 6 7 8 8 6 6 5 6 6 5 6 7 7 9 9 8 9 10 11 11 11 11 10 9 7 5 5 6 5 5 14 15 20
Wind_Direction
284 125 248 231 225 254 279 272 263 269 275 289 285 273 279 272 276 273 272 265 269 262 277 15 21 3 189 66 222 192 180 180 172 176 184 188 198 183 190 180 179 180 179 178
337 241 264 256 240 241 260 268 272 288 290 287 287 289 278 257 260 264 263 258 257 239 63 49 24 25 36 27 19 178 181 174 182 188 195 201 192 205 190 179 164 177 180 181
206 247 294 289 279 266 259 264 278 270 288 284 280 277 272 259 274 271 246 247 329 141 76 45 42 15 26 22 4 353 184 174 188 190 167 119 116 94 144 188 185 188 181 181
246 266 233 258 257 232 276 249 260 271 287 282 38 294 280 288 274 286 43 50 52 46 48 30 32 20 19 12 3 356 46 91 170 176 177 186 191 187 202 197 192 182 173 184
266 276 292 284 236 144 241 300 265 270 265 285 275 252 283 270 272 66 41 45 48 37 38 27 23 22 19 16 12 4 22 48 30 22 198 185 187 198 144 156 182 181 185 189
252 261 241 229 292 204 264 295 276 261 227 255 270 198 324 2 18 63 51 48 43 42 36 31 24 18 27 20 23 9 11 35 32 17 1 250 191 185 168 173 184 193 192 195
305 269 261 197 297 275 148 315 317 319 267 252 327 156 29 15 26 33 41 59 49 40 38 31 27 23 31 24 24 11 6 30 23 17 359 344 335 213 191 189 194 191 188 198
331 322 200 173 207 249 204 178 235 281 256 267 317 321 34 22 19 21 29 46 54 45 36 35 33 33 31 25 24 14 9 21 17 9 345 331 322 289 238 205 195 200 197 202
306 265 310 293 256 142 316 196 168 266 261 272 102 59 95 25 25 19 18 18 36 34 33 35 34 33 32 29 25 13 13 22 15 5 345 334 327 295 269 217 203 197 203 192
288 291 253 302 299 246 177 276 301 243 319 321 54 60 14 20 14 17 13 24 20 13 18 43 35 33 29 25 19 17 17 19 16 11 3 350 327 315 259 271 210 208 207 186
262 239 291 341 222 215 302 264 197 259 207 309 337 67 15 34 21 11 16 9 9 355 340 47 43 39 36 29 13 12 17 12 12 7 4 1 353 350 336 255 242 208 188 189
286 290 280 263 289 181 190 247 224 246 277 94 76 56 12 48 19 12 21 16 5 352 1 46 36 25 24 27 11 18 16 17 9 4 8 7 1 2 5 0 356 245 202 198
348 274 297 305 15 11 304 278 268 278 178 183 116 88 50 47 32 29 24 16 13 7 21 45 48 34 22 23 17 16 19 14 9 5 10 11 9 10 4 3 356 2 279 198
300 292 351 358 350 331 341 327 17 161 41 64 63 96 45 30 22 29 32 23 16 14 18 26 23 12 16 21 11 18 9 12 8 15 15 16 11 9 9 8 10 10 10 1
342 277 245 90 50 17 34 35 55 65 50 51 87 75 44 28 25 22 32 28 26 26 25 25 24 16 16 13 11 7 9 10 7 15 19 15 15 14 16 17 18 23 30 17
35 278 275 249 293 9 38 30 39 62 87 87 87 79 47 35 33 34 34 30 31 28 26 22 17 21 17 17 7 8 7 5 8 17 16 10 16 19 19 19 19 25 34 36
299 296 287 290 346 317 20 12 31 50 36 40 70 63 72 49 40 28 36 31 29 27 20 16 15 18 16 17 13 15 7 2 11 15 15 14 12 19 22 22 19 24 27 29
271 273 254 268 135 32 254 5 35 70 42 52 86 95 98 92 68 43 43 35 30 23 14 11 11 14 11 11 17 13 10 12 14 16 14 14 15 19 18 23 23 23 26 28
209 285 283 280 60 118 19 18 347 355 52 26 38 85 147 155 97 47 45 51 34 21 11 11 10 16 7 6 18 16 21 22 18 18 17 12 18 18 21 20 19 19 28 29
134 38 275 78 114 154 50 328 325 303 70 28 32 27 29 2 68 39 28 37 35 26 19 11 12 23 19 3 9 25 26 25 20 9 9 8 14 22 24 24 21 15 23 30
351 14 347 357 93 98 354 318 308 299 10 42 46 40 48 79 75 87 52 35 27 19 13 16 20 23 16 9 16 20 26 26 12 4 8 13 16 23 19 22 25 24 29 32
54 318 10 340 54 28 355 7 53 95 75 80 72 71 76 87 83 70 52 38 35 20 14 14 21 22 15 13 8 18 21 10 16 16 17 17 18 20 19 26 23 24 22 33
57 47 21 4 72 48 20 60 56 53 90 89 102 93 99 85 65 52 35 34 29 23 13 12 19 17 15 11 17 16 4 0 18 19 21 21 22 25 28 34 31 28 23 26
92 36 87 186 95 76 62 41 58 61 75 45 96 101 103 106 89 76 54 38 30 21 17 9 19 23 15 8 14 15 7 3 15 26 26 21 20 26 33 36 29 29 28 32
4 343 100 76 111 103 76 56 96 79 76 72 59 67 84 95 73 68 53 43 35 28 16 23 22 22 11 4 8 4 3 8 15 28 27 28 20 23 24 27 31 31 28 34
9 28 32 119 137 94 105 89 108 90 79 80 92 70 51 73 85 77 67 63 37 26 21 26 29 22 6 8 7 0 357 4 21 25 23 15 22 24 28 20 14 35 47 44